Location: Serin Observatory
(40.5200°N, 74.4500°W)
Time: 01:56:56
(UTC+00:00)

SL-8 R/B - Visible Passes

Search period start: 29 April 2016 00:00
Search period end: 09 May 2016 00:00
Orbit: 657 x 668 km, 48.4° (Epoch: 27 April)

Date Brightness Start Highest point End Pass type
(mag) Time Alt. Az. Time Alt. Az. Time Alt. Az.
29 Apr 4.3 09:18:33 10° SW 09:23:12 51° SE 09:27:52 10° ENE visible
30 Apr 5.4 08:09:55 17° S 08:12:10 24° SE 08:15:59 10° E visible
01 May 4.1 08:39:47 19° SW 08:43:04 54° SE 08:47:46 10° ENE visible
02 May 5.1 07:31:35 25° SE 07:32:00 25° SE 07:35:56 10° E visible
02 May 3.8 09:09:34 11° WSW 09:14:14 75° NNW 09:19:03 10° ENE visible
03 May 3.9 08:01:18 37° SSW 08:02:55 58° SE 08:07:39 10° ENE visible
04 May 5.3 06:52:58 25° ESE 06:52:58 25° ESE 06:55:53 10° ENE visible
04 May 3.8 08:30:57 21° WSW 08:34:06 71° NNW 08:38:55 10° ENE visible
05 May 3.7 07:22:34 61° SSE 07:22:47 62° SE 07:27:32 10° ENE visible
05 May 4.6 09:00:55 10° W 09:05:31 43° NNW 09:10:07 10° NE visible
06 May 5.8 06:14:09 19° E 06:14:09 19° E 06:15:50 10° ENE visible
06 May 3.9 07:52:07 36° W 07:53:59 67° NNW 07:58:47 10° ENE visible
07 May 4.3 06:43:39 51° E 06:43:39 51° E 06:47:26 10° ENE visible
07 May 4.7 08:21:37 14° W 08:25:25 41° NNW 08:30:00 10° NE visible
08 May 6.2 05:35:09 13° E 05:35:09 13° E 05:35:46 10° ENE visible
08 May 3.9 07:13:07 55° WNW 07:13:51 64° NNW 07:18:40 10° ENE visible
08 May 5.2 08:52:40 10° WNW 08:57:01 32° N 09:01:22 10° ENE visible
